User: anonymous   Login
Location: Trondheim
(63.4170°N, 10.4170°E)
Time: 10:47:08
(UTC+02:00)
Language:

Iridium 82 - Orbit

View from above orbital plane
View from above orbital plane
View from above satellite
View from above satellite

Ground track
Ground track

The orbit data is extracted from the following two-line orbital elements,

1 25467U 98051A   16269.54165383  .00000171  00000-0  53903-4 0  9999
2 25467  86.3941 132.8364 0002352  80.5432 279.6030 14.34224800948688
Epoch (UTC): 25 September 2016 12:59:58
Eccentricity: 0.0002352
inclination: 86.3941°
perigee height: 776 km
apogee height: 779 km
right ascension of ascending node: 132.8364°
argument of perigee: 80.5432°
revolutions per day: 14.34224800
mean anomaly at epoch: 279.6030°
orbit number at epoch: 94868

The dashed part of the orbit path shows where the satellite is in the earth's shadow,  

DLR